MFX335 UZTT-VHHH

Flight info

Callsign MFX335
Flight time N/A
Altitude 33000
Route TISIB2F TISIB L141 KAMUD/K0917S1010 W186 SADAN Y1 OMBON W245 OVRAL B330 AKVEP/K0920S1070 B330 DAGDI W234 NIXID B330 AVPAM V25 UJ/N0502F350 DCT SIERA
Aircraft B742/H-SDFHIRWXY/L

Departure

Time 2026-05-08 08:07
Airport Tashkent International Airport (UZTT)

Arrival

Time N/A
Airport Hong Kong International Airport (VHHH)
Time Latitude Longitude Altitude Speed Heading
2026-05-08 06:57 41.26229 69.28064 1425 ft 0 kts 306°
2026-05-08 07:46 41.26227 69.28067 1425 ft 2 kts 307°
2026-05-08 07:46 41.26218 69.28082 1425 ft 2 kts 311°
2026-05-08 07:46 41.26208 69.28097 1425 ft 2 kts 311°
2026-05-08 07:47 41.26199 69.28112 1425 ft 2 kts 305°
2026-05-08 07:47 41.26191 69.28126 1425 ft 0 kts 303°
2026-05-08 07:47 41.26185 69.28139 1425 ft 2 kts 300°
2026-05-08 07:47 41.26178 69.28157 1425 ft 2 kts 290°
2026-05-08 07:48 41.26174 69.28175 1425 ft 2 kts 282°
2026-05-08 07:48 41.26172 69.28195 1425 ft 2 kts 274°
2026-05-08 07:48 41.26172 69.28215 1425 ft 2 kts 266°
2026-05-08 07:48 41.26172 69.28226 1425 ft 1 kts 261°
2026-05-08 07:49 41.26173 69.28226 1425 ft 0 kts 261°
2026-05-08 07:55 41.26172 69.28225 1425 ft 1 kts 261°
2026-05-08 07:55 41.26169 69.28198 1425 ft 5 kts 261°
2026-05-08 07:55 41.26162 69.28129 1425 ft 9 kts 262°
2026-05-08 07:56 41.26150 69.28019 1425 ft 14 kts 262°
2026-05-08 07:56 41.26136 69.27881 1425 ft 14 kts 262°
2026-05-08 07:56 41.26123 69.27764 1425 ft 11 kts 261°
2026-05-08 07:56 41.26111 69.27666 1424 ft 10 kts 259°
2026-05-08 07:57 41.26101 69.27580 1424 ft 9 kts 263°
2026-05-08 07:57 41.26093 69.27490 1424 ft 10 kts 262°
2026-05-08 07:57 41.26082 69.27393 1424 ft 11 kts 261°
2026-05-08 07:57 41.26070 69.27300 1424 ft 8 kts 251°
2026-05-08 07:58 41.26034 69.27281 1424 ft 5 kts 156°
2026-05-08 07:58 41.26008 69.27304 1424 ft 3 kts 141°
2026-05-08 07:58 41.25987 69.27329 1424 ft 4 kts 139°
2026-05-08 07:58 41.25957 69.27363 1424 ft 7 kts 139°
2026-05-08 07:59 41.25932 69.27393 1424 ft 0 kts 138°
2026-05-08 07:59 41.25929 69.27396 1424 ft 1 kts 138°
2026-05-08 08:00 41.25906 69.27423 1424 ft 7 kts 137°
2026-05-08 08:00 41.25855 69.27486 1424 ft 12 kts 140°
2026-05-08 08:00 41.25784 69.27470 1424 ft 11 kts 241°
2026-05-08 08:00 41.25763 69.27367 1424 ft 11 kts 260°
2026-05-08 08:01 41.25755 69.27268 1424 ft 9 kts 260°
2026-05-08 08:01 41.25743 69.27174 1424 ft 11 kts 261°
2026-05-08 08:01 41.25729 69.27051 1424 ft 15 kts 262°
2026-05-08 08:01 41.25711 69.26887 1424 ft 20 kts 262°
2026-05-08 08:02 41.25689 69.26685 1424 ft 23 kts 261°
2026-05-08 08:02 41.25666 69.26477 1424 ft 21 kts 262°
2026-05-08 08:02 41.25646 69.26295 1424 ft 18 kts 261°
2026-05-08 08:02 41.25628 69.26139 1424 ft 15 kts 262°
2026-05-08 08:03 41.25613 69.26009 1424 ft 12 kts 261°
2026-05-08 08:03 41.25602 69.25902 1424 ft 10 kts 262°
2026-05-08 08:03 41.25607 69.25818 1424 ft 7 kts 297°
2026-05-08 08:03 41.25622 69.25769 1424 ft 4 kts 264°
2026-05-08 08:04 41.25607 69.25741 1424 ft 4 kts 198°
2026-05-08 08:04 41.25577 69.25761 1424 ft 6 kts 97°
2026-05-08 08:04 41.25592 69.25832 1424 ft 7 kts 76°
2026-05-08 08:04 41.25599 69.25882 1424 ft 0 kts 82°
2026-05-08 08:06 41.25632 69.26183 1424 ft 64 kts 81°
2026-05-08 08:07 41.25731 69.27029 1424 ft 121 kts 82°
2026-05-08 08:07 41.25875 69.28377 1425 ft 172 kts 82°
2026-05-08 08:07 41.26071 69.30114 1554 ft 200 kts 83°
2026-05-08 08:07 41.26223 69.31933 2065 ft 199 kts 83°
2026-05-08 08:08 41.26418 69.33773 2540 ft 203 kts 80°
2026-05-08 08:08 41.26682 69.35587 3115 ft 201 kts 78°
2026-05-08 08:08 41.27009 69.37401 3588 ft 206 kts 76°
2026-05-08 08:08 41.27356 69.39239 4031 ft 212 kts 76°
2026-05-08 08:09 41.27698 69.41171 4439 ft 220 kts 77°
2026-05-08 08:09 41.28061 69.43198 4912 ft 226 kts 76°
2026-05-08 08:09 41.28453 69.45209 5466 ft 228 kts 76°
2026-05-08 08:09 41.28825 69.47348 5626 ft 251 kts 78°
2026-05-08 08:10 41.29179 69.49689 5895 ft 262 kts 79°
2026-05-08 08:10 41.29515 69.52108 6425 ft 270 kts 80°
2026-05-08 08:10 41.29816 69.54610 6943 ft 280 kts 81°
2026-05-08 08:10 41.30082 69.57162 7609 ft 283 kts 83°
2026-05-08 08:11 41.30238 69.59721 8417 ft 278 kts 88°
2026-05-08 08:11 41.30190 69.62258 9072 ft 279 kts 96°
2026-05-08 08:11 41.29642 69.64749 9362 ft 292 kts 123°
2026-05-08 08:11 41.28105 69.66735 9136 ft 324 kts 147°
2026-05-08 08:12 41.26251 69.68413 9978 ft 317 kts 146°
2026-05-08 08:12 41.24694 69.70149 11538 ft 280 kts 130°
2026-05-08 08:12 41.23857 69.72266 12643 ft 254 kts 98°
2026-05-08 08:12 41.23785 69.74580 12881 ft 261 kts 84°
2026-05-08 08:13 41.23982 69.77046 13001 ft 278 kts 82°
2026-05-08 08:13 41.24245 69.79700 13113 ft 296 kts 82°
2026-05-08 08:13 41.24217 69.82466 13217 ft 313 kts 106°
2026-05-08 08:13 41.23359 69.85203 13331 ft 331 kts 124°
2026-05-08 08:14 41.21962 69.87744 13435 ft 351 kts 128°
2026-05-08 08:14 41.20604 69.90548 13532 ft 373 kts 117°
2026-05-08 08:14 41.19506 69.93788 13636 ft 396 kts 112°
2026-05-08 08:14 41.18453 69.97240 13732 ft 419 kts 112°
2026-05-08 08:15 41.17336 70.00890 14049 ft 435 kts 112°
2026-05-08 08:15 41.16157 70.04677 14394 ft 451 kts 113°
2026-05-08 08:15 41.14936 70.08544 14737 ft 466 kts 113°
2026-05-08 08:15 41.13654 70.12579 15086 ft 482 kts 113°
2026-05-08 08:16 41.12333 70.16718 15459 ft 496 kts 114°
2026-05-08 08:16 41.10973 70.20970 16011 ft 505 kts 114°
2026-05-08 08:16 41.09618 70.25209 16639 ft 499 kts 114°
2026-05-08 08:16 41.08292 70.29378 17342 ft 493 kts 114°
2026-05-08 08:17 41.06979 70.33517 18075 ft 485 kts 114°
2026-05-08 08:17 41.05683 70.37591 18880 ft 476 kts 114°
2026-05-08 08:17 41.04400 70.41612 19697 ft 467 kts 114°
2026-05-08 08:17 41.03151 70.45507 20511 ft 458 kts 114°
2026-05-08 08:18 41.01924 70.49323 21333 ft 449 kts 114°
2026-05-08 08:18 41.00789 70.53097 22145 ft 439 kts 108°
2026-05-08 08:18 41.00198 70.56979 22931 ft 431 kts 94°
2026-05-08 08:18 41.00282 70.60942 23343 ft 431 kts 80°
2026-05-08 08:19 41.01046 70.64750 23760 ft 430 kts 69°
2026-05-08 08:19 41.02090 70.68454 24182 ft 429 kts 70°
2026-05-08 08:19 41.03029 70.72179 24603 ft 429 kts 73°
2026-05-08 08:19 41.03824 70.75961 25003 ft 428 kts 76°
2026-05-08 08:20 41.04527 70.79816 25409 ft 428 kts 77°
2026-05-08 08:20 41.05169 70.83637 25809 ft 427 kts 77°
2026-05-08 08:20 41.05786 70.87435 26065 ft 429 kts 78°
2026-05-08 08:20 41.06410 70.91312 26276 ft 433 kts 78°
2026-05-08 08:21 41.07039 70.95233 26486 ft 437 kts 77°
2026-05-08 08:21 41.07674 70.99181 26697 ft 440 kts 77°
2026-05-08 08:21 41.08306 71.03117 26904 ft 443 kts 77°
2026-05-08 08:21 41.08947 71.07113 27129 ft 446 kts 78°
2026-05-08 08:22 41.09590 71.11129 27365 ft 449 kts 78°
2026-05-08 08:22 41.10244 71.15227 27604 ft 451 kts 77°
2026-05-08 08:22 41.10892 71.19299 27842 ft 453 kts 77°
2026-05-08 08:22 41.11542 71.23386 28079 ft 455 kts 77°
2026-05-08 08:23 41.12195 71.27505 28316 ft 457 kts 77°
2026-05-08 08:23 41.12850 71.31647 28554 ft 458 kts 77°
2026-05-08 08:23 41.13514 71.35855 28797 ft 460 kts 77°
2026-05-08 08:23 41.14163 71.39980 29033 ft 461 kts 77°
2026-05-08 08:24 41.14816 71.44141 29272 ft 462 kts 77°
2026-05-08 08:24 41.15470 71.48318 29511 ft 463 kts 77°
2026-05-08 08:24 41.16125 71.52514 29750 ft 464 kts 77°
2026-05-08 08:24 41.16779 71.56708 29992 ft 464 kts 77°
2026-05-08 08:25 41.17422 71.60851 30230 ft 465 kts 76°
2026-05-08 08:25 41.18074 71.65054 30474 ft 465 kts 77°
2026-05-08 08:25 41.18730 71.69296 30719 ft 465 kts 77°
2026-05-08 08:25 41.19381 71.73521 30960 ft 465 kts 77°
2026-05-08 08:26 41.19936 71.77737 31204 ft 465 kts 80°
2026-05-08 08:26 41.20353 71.81987 31446 ft 465 kts 82°
2026-05-08 08:26 41.20683 71.86271 31690 ft 465 kts 83°
2026-05-08 08:26 41.20961 71.90510 31930 ft 465 kts 84°
2026-05-08 08:27 41.21211 71.94830 32047 ft 468 kts 84°
2026-05-08 08:27 41.21685 72.03484 32056 ft 478 kts 84°
2026-05-08 08:28 41.22212 72.12365 32176 ft 485 kts 84°
2026-05-08 08:28 41.22470 72.16789 32434 ft 485 kts 84°
2026-05-08 08:28 41.22724 72.21223 32690 ft 484 kts 84°
2026-05-08 08:28 41.22979 72.25696 32958 ft 483 kts 84°
2026-05-08 08:29 41.23231 72.30137 33217 ft 483 kts 84°
2026-05-08 08:29 41.23480 72.34554 33335 ft 485 kts 84°
2026-05-08 08:29 41.23732 72.39048 33363 ft 490 kts 84°
2026-05-08 08:30 41.24229 72.48034 33386 ft 493 kts 84°
2026-05-08 08:30 41.24968 72.61724 33409 ft 499 kts 84°
2026-05-08 08:31 41.25452 72.70911 33423 ft 502 kts 84°
2026-05-08 08:31 41.25933 72.80204 33453 ft 505 kts 85°
2026-05-08 08:32 41.26403 72.89451 33432 ft 508 kts 84°
2026-05-08 08:32 41.26874 72.98851 33407 ft 511 kts 84°
2026-05-08 08:33 41.27334 73.08206 33446 ft 512 kts 84°
2026-05-08 08:33 41.27790 73.17638 33504 ft 512 kts 84°
2026-05-08 08:34 41.28240 73.27087 33537 ft 513 kts 84°
2026-05-08 08:34 41.28682 73.36526 33590 ft 513 kts 84°
2026-05-08 08:35 41.29116 73.45974 33603 ft 514 kts 84°
2026-05-08 08:35 41.29543 73.55424 33620 ft 514 kts 84°
2026-05-08 08:36 41.29962 73.64887 33659 ft 514 kts 84°
2026-05-08 08:36 41.30374 73.74367 33700 ft 513 kts 85°
2026-05-08 08:37 41.30776 73.83776 33695 ft 514 kts 85°
2026-05-08 08:37 41.31170 73.93213 33748 ft 513 kts 85°
2026-05-08 08:38 41.31652 74.02644 33758 ft 513 kts 83°
2026-05-08 08:38 41.32287 74.12074 33763 ft 513 kts 83°
2026-05-08 08:39 41.32959 74.21440 33769 ft 513 kts 83°
2026-05-08 08:39 41.33631 74.30873 33768 ft 513 kts 83°
2026-05-08 08:40 41.34288 74.40256 33759 ft 508 kts 83°
2026-05-08 08:40 41.34932 74.49571 33754 ft 510 kts 83°
2026-05-08 08:41 41.35574 74.58958 33743 ft 511 kts 83°
2026-05-08 08:41 41.36206 74.68355 33749 ft 512 kts 84°
2026-05-08 08:42 41.36832 74.77779 33747 ft 512 kts 84°
2026-05-08 08:42 41.37452 74.87219 33740 ft 513 kts 84°
2026-05-08 08:43 41.38062 74.96625 33759 ft 512 kts 84°
2026-05-08 08:43 41.38664 75.06004 33741 ft 512 kts 84°
2026-05-08 08:44 41.39260 75.15413 33770 ft 512 kts 84°
2026-05-08 08:44 41.39846 75.24807 33789 ft 512 kts 84°
2026-05-08 08:45 41.40429 75.34257 33797 ft 512 kts 84°
2026-05-08 08:45 41.40999 75.43641 33818 ft 512 kts 83°
2026-05-08 08:46 41.41565 75.53089 33823 ft 512 kts 83°
2026-05-08 08:46 41.42123 75.62517 33821 ft 512 kts 83°
2026-05-08 08:47 41.42671 75.71929 33809 ft 511 kts 84°
2026-05-08 08:47 41.43213 75.81345 33818 ft 511 kts 84°
2026-05-08 08:48 41.43748 75.90752 33842 ft 510 kts 84°
2026-05-08 08:48 41.44273 76.00124 33861 ft 510 kts 84°
2026-05-08 08:49 41.44792 76.09512 33858 ft 510 kts 84°
2026-05-08 08:49 41.45303 76.18913 33860 ft 511 kts 84°
2026-05-08 08:50 41.45806 76.28303 33866 ft 511 kts 84°
2026-05-08 08:50 41.46302 76.37717 33864 ft 511 kts 84°
2026-05-08 08:51 41.46790 76.47120 33862 ft 511 kts 84°
2026-05-08 08:51 41.47271 76.56552 33863 ft 511 kts 84°
2026-05-08 08:52 41.47747 76.66016 33861 ft 511 kts 84°
2026-05-08 08:52 41.48213 76.75440 33860 ft 511 kts 84°
2026-05-08 08:53 41.48669 76.84831 33865 ft 511 kts 84°
2026-05-08 08:53 41.49123 76.94316 33852 ft 512 kts 84°
2026-05-08 08:54 41.49563 77.03696 33857 ft 512 kts 84°
2026-05-08 08:54 41.50000 77.13152 33854 ft 512 kts 84°
2026-05-08 08:55 41.50429 77.22636 33846 ft 512 kts 84°
2026-05-08 08:55 41.50848 77.32054 33859 ft 512 kts 84°
2026-05-08 08:56 41.51260 77.41498 33872 ft 512 kts 84°
2026-05-08 08:56 41.51666 77.50956 33880 ft 512 kts 84°
2026-05-08 08:57 41.52065 77.60448 33893 ft 511 kts 84°
2026-05-08 08:57 41.52453 77.69883 33894 ft 511 kts 85°
2026-05-08 08:58 41.52840 77.79315 33892 ft 510 kts 85°
2026-05-08 08:58 41.53244 77.88705 33893 ft 510 kts 84°
2026-05-08 08:59 41.53631 77.98092 33894 ft 509 kts 85°
2026-05-08 08:59 41.53999 78.07550 33892 ft 509 kts 85°
2026-05-08 09:00 41.54349 78.16885 33884 ft 509 kts 85°
2026-05-08 09:00 41.54694 78.26308 33876 ft 508 kts 85°
2026-05-08 09:01 41.55032 78.35709 33865 ft 508 kts 85°
2026-05-08 09:01 41.55359 78.45043 33851 ft 507 kts 85°
2026-05-08 09:02 41.55679 78.54401 33833 ft 507 kts 85°
2026-05-08 09:02 41.55992 78.63812 33839 ft 506 kts 85°
2026-05-08 09:03 41.56295 78.73180 33824 ft 506 kts 85°
2026-05-08 09:03 41.56306 78.82505 33803 ft 508 kts 94°
2026-05-08 09:04 41.55028 78.91766 33789 ft 510 kts 102°
2026-05-08 09:04 41.53238 79.00878 33789 ft 510 kts 103°
2026-05-08 09:05 41.51380 79.09966 33761 ft 510 kts 103°
2026-05-08 09:05 41.49536 79.19059 33738 ft 510 kts 103°
2026-05-08 09:06 41.47695 79.28167 33692 ft 510 kts 103°
2026-05-08 09:06 41.45858 79.37239 33644 ft 510 kts 103°
2026-05-08 09:07 41.44005 79.46343 33609 ft 509 kts 103°
2026-05-08 09:07 41.42148 79.55426 33585 ft 509 kts 103°
2026-05-08 09:08 41.40294 79.64454 33568 ft 507 kts 103°
2026-05-08 09:08 41.38422 79.73511 33521 ft 508 kts 103°
2026-05-08 09:09 41.36562 79.82501 33549 ft 506 kts 103°
2026-05-08 09:09 41.34681 79.91550 33555 ft 506 kts 103°
2026-05-08 09:10 41.32812 80.00494 33537 ft 507 kts 103°
2026-05-08 09:10 41.30905 80.09512 33507 ft 507 kts 104°
2026-05-08 09:11 41.28920 80.18454 33477 ft 507 kts 104°
2026-05-08 09:11 41.26926 80.27449 33439 ft 507 kts 104°
2026-05-08 09:12 41.24996 80.36414 33454 ft 506 kts 104°
2026-05-08 09:12 41.23084 80.45366 33389 ft 508 kts 104°
2026-05-08 09:13 41.21164 80.54333 33403 ft 507 kts 104°
2026-05-08 09:13 41.19225 80.63340 33380 ft 508 kts 104°
2026-05-08 09:14 41.17302 80.72382 33362 ft 508 kts 104°
2026-05-08 09:14 41.15401 80.81379 33369 ft 508 kts 104°
2026-05-08 09:15 41.13495 80.90380 33330 ft 509 kts 104°
2026-05-08 09:15 41.11583 80.99371 33347 ft 509 kts 104°
2026-05-08 09:16 41.09664 81.08350 33314 ft 509 kts 104°
2026-05-08 09:16 41.07742 81.17308 33317 ft 509 kts 104°
2026-05-08 09:17 41.05782 81.26315 33316 ft 509 kts 104°
2026-05-08 09:17 41.03784 81.35297 33302 ft 510 kts 105°
2026-05-08 09:18 41.01772 81.44240 33269 ft 510 kts 105°
2026-05-08 09:18 40.99743 81.53202 33271 ft 510 kts 105°
2026-05-08 09:19 40.97710 81.62197 33267 ft 510 kts 104°
2026-05-08 09:19 40.95837 81.71220 33257 ft 510 kts 103°
2026-05-08 09:20 40.94082 81.80296 33252 ft 510 kts 103°
2026-05-08 09:20 40.92356 81.89329 33250 ft 510 kts 103°
2026-05-08 09:21 40.90615 81.98412 33248 ft 510 kts 102°
2026-05-08 09:23 40.84506 82.30060 33255 ft 510 kts 102°
2026-05-08 09:23 40.82746 82.39093 33254 ft 510 kts 102°
2026-05-08 09:24 40.80977 82.48125 33254 ft 510 kts 102°
2026-05-08 09:24 40.79199 82.57159 33254 ft 510 kts 102°
2026-05-08 09:25 40.77418 82.66168 33258 ft 510 kts 103°
2026-05-08 09:25 40.75628 82.75186 33264 ft 509 kts 103°
2026-05-08 09:26 40.73827 82.84227 33259 ft 509 kts 103°
2026-05-08 09:26 40.72037 82.93163 33265 ft 509 kts 103°
2026-05-08 09:27 40.70232 83.02142 33260 ft 509 kts 103°
2026-05-08 09:27 40.68417 83.11124 33262 ft 509 kts 103°
2026-05-08 09:28 40.66586 83.20139 33262 ft 509 kts 103°
2026-05-08 09:28 40.64767 83.29065 33265 ft 508 kts 103°
2026-05-08 09:29 40.62930 83.38040 33260 ft 508 kts 103°
2026-05-08 09:29 40.61095 83.46963 33259 ft 507 kts 103°
2026-05-08 09:30 40.59173 83.55807 33260 ft 507 kts 104°
2026-05-08 09:30 40.57151 83.64655 33257 ft 507 kts 103°
2026-05-08 09:31 40.55225 83.73580 33262 ft 506 kts 103°
2026-05-08 09:31 40.53357 83.82476 33260 ft 506 kts 103°
2026-05-08 09:32 40.51503 83.91339 33258 ft 506 kts 103°
2026-05-08 09:32 40.49674 84.00254 33261 ft 505 kts 103°
2026-05-08 09:33 40.47874 84.09122 33258 ft 505 kts 102°
2026-05-08 09:33 40.46069 84.17997 33256 ft 504 kts 102°
2026-05-08 09:34 40.44262 84.26837 33258 ft 503 kts 103°
2026-05-08 09:34 40.42445 84.35688 33261 ft 503 kts 102°
2026-05-08 09:35 40.40636 84.44466 33261 ft 503 kts 103°
2026-05-08 09:35 40.38802 84.53321 33259 ft 503 kts 102°
2026-05-08 09:36 40.36974 84.62116 33259 ft 502 kts 103°
2026-05-08 09:36 40.35137 84.70911 33270 ft 502 kts 103°
2026-05-08 09:37 40.33286 84.79741 33267 ft 502 kts 103°
2026-05-08 09:37 40.31441 84.88500 33272 ft 501 kts 103°
2026-05-08 09:38 40.29594 84.97237 33265 ft 501 kts 103°
2026-05-08 09:38 40.27726 85.06037 33267 ft 500 kts 103°
2026-05-08 09:39 40.25875 85.14724 33269 ft 500 kts 103°
2026-05-08 09:39 40.24004 85.23464 33269 ft 500 kts 103°
2026-05-08 09:40 40.22123 85.32219 33269 ft 500 kts 103°
2026-05-08 09:40 40.20253 85.40884 33275 ft 499 kts 103°
2026-05-08 09:41 40.18361 85.49621 33273 ft 498 kts 103°
2026-05-08 09:41 40.16473 85.58302 33279 ft 498 kts 103°
2026-05-08 09:42 40.14581 85.66967 33273 ft 498 kts 104°
2026-05-08 09:42 40.12676 85.75655 33262 ft 497 kts 104°
2026-05-08 09:43 40.10782 85.84260 33252 ft 497 kts 104°
2026-05-08 09:43 40.08864 85.92941 33257 ft 497 kts 104°
2026-05-08 09:44 40.06857 86.01539 33259 ft 497 kts 105°
2026-05-08 09:44 40.04640 86.10040 33263 ft 497 kts 107°
2026-05-08 09:45 40.02343 86.18508 33263 ft 497 kts 107°
2026-05-08 09:45 40.00032 86.26955 33266 ft 496 kts 107°
2026-05-08 09:46 39.97719 86.35393 33266 ft 497 kts 107°
2026-05-08 09:46 39.95390 86.43864 33271 ft 497 kts 107°
2026-05-08 09:47 39.93070 86.52281 33268 ft 497 kts 107°
2026-05-08 09:47 39.90728 86.60748 33264 ft 497 kts 107°
2026-05-08 09:48 39.88377 86.69217 33263 ft 497 kts 108°
2026-05-08 09:48 39.86023 86.77675 33260 ft 498 kts 108°
2026-05-08 09:49 39.83668 86.86101 33261 ft 498 kts 108°
2026-05-08 09:49 39.81300 86.94550 33264 ft 498 kts 108°
2026-05-08 09:50 39.78928 87.02985 33262 ft 498 kts 108°